Location: Cudrovice
(48.9519°N, 13.9183°E)
Time: 11:39:36
(UTC+00:00)

Daily predictions for brighter satellites

Satellite Brightness Start Highest point End
(mag) Time Altitude Azimuth Time Altitude Azimuth Time Altitude Azimuth
USA 234 4.4 19:15:00 10° ENE 19:21:09 45° N 19:27:19 10° WNW
SAR-Lupe-1 4.3 19:19:18 10° N 19:22:53 75° WNW 19:26:27 10° SSW
SAR-Lupe-4 3.7 19:20:55 10° NNE 19:24:32 82° WNW 19:28:06 10° SSW
Cosmos 2219 Rocket 4.0 19:22:54 10° N 19:26:57 20° NE 19:30:58 10° E
Spot 2 Rocket 4.4 19:23:26 10° SE 19:28:00 34° ENE 19:32:35 10° N
Cosmos 1633 3.0 19:25:54 10° SSW 19:29:29 65° W 19:33:06 10° N
BREEZE-M DEB (TANK) 3.5 19:27:41 10° SW 19:31:11 51° SE 19:42:34 10° ENE
Cosmos 1680 Rocket 4.1 19:30:16 10° SSE 19:35:04 37° ESE 19:39:52 10° NE
Cosmos 1076 Rocket 4.0 19:32:17 10° SSW 19:36:37 68° W 19:41:00 10° N
Resurs 01 Rocket 1.7 19:32:41 10° SSE 19:37:08 88° WSW 19:41:37 10° NNW
SL-16 R/B 2.2 19:35:03 10° NNW 19:40:46 83° ENE 19:46:27 10° SSE
Cosmos 1151 Rocket 3.6 19:36:53 10° N 19:41:03 41° ENE 19:44:57 11° SE
Terra 3.3 19:40:09 10° ESE 19:43:55 24° ENE 19:47:41 10° N
ATLAS 5 CENTAUR R/B 3.7 19:40:23 10° NNW 19:44:41 26° NNE 19:49:37 10° E
Cosmos 332 Rocket 4.3 19:42:28 10° NNW 19:47:17 60° WSW 19:52:06 10° S
Meteor 2-3 Rocket 3.7 19:41:47 10° S 19:47:25 71° E 19:53:10 10° NNE
SPOT 3 Rocket 3.6 19:42:39 10° SSE 19:47:53 90° WSW 19:53:08 10° NNW
NOSS 2-1 (E) 4.1 19:45:50 10° S 19:48:23 21° ESE 19:50:58 10° ENE
CZ-2C R/B 4.0 19:45:03 10° NNE 19:49:23 44° E 19:53:38 10° S
Cosmos 2237 4.4 19:45:04 10° NNW 19:50:45 63° ENE 19:55:45 13° SE
Cosmos 1933 3.5 19:48:09 10° NNW 19:52:12 75° W 19:56:13 10° S
Cosmos 1271 Rocket 2.9 19:49:31 10° NNW 19:53:31 83° W 19:57:31 10° S
NOSS 3-1 (C) 4.5 19:47:06 10° NW 19:54:06 54° NE 20:02:01 11° ESE
COSMOS 2428 4.3 19:49:50 10° NNW 19:54:27 24° NE 19:59:01 10° E
Cosmos 1328 Rocket 4.1 19:50:23 10° N 19:54:40 44° ENE 19:58:06 15° SE
Cosmos 1766 Rocket 4.0 19:51:01 10° SSE 19:55:09 42° E 19:59:17 10° NNE
Gbstr 26 Del rocket 3.5 19:51:49 10° WNW 19:55:18 38° SSW 19:58:12 15° SSE
OBJECT-B 4.0 19:56:51 10° WSW 19:57:36 11° W 19:58:21 10° WNW
SPOT 5 3.3 19:57:34 15° SE 20:00:48 40° ENE 20:04:59 10° N
CZ-3B R/B 4.2 19:41:55 10° W 20:01:13 60° N 20:05:46 10° E
IGS 5A 4.3 19:57:25 10° S 20:01:25 48° W 20:05:27 10° NNW
Cosmos 2098 Rocket 4.4 19:58:57 10° SW 20:02:02 34° WNW 20:05:46 10° N
ARIANE 5 R/B 3.0 19:58:58 15° SE 20:02:30 50° ENE 20:06:48 10° N
Cosmos 292 Rocket 4.5 20:00:47 10° NNW 20:05:18 40° ENE 20:08:41 17° ESE
Meteor 2-6 Rocket 4.4 20:00:23 10° N 20:05:41 52° ENE 20:09:47 16° SE
Cosmos 2195 Rocket 4.5 19:59:40 10° S 20:05:48 90° SE 20:11:57 10° N
Cosmos 1862 4.2 20:04:11 17° SE 20:06:37 32° E 20:10:10 10° NNE
Ariane Rocket 4.4 20:02:33 10° SSW 20:07:10 35° W 20:11:49 10° NNW
Cosmos 1782 2.8 20:04:08 10° N 20:08:10 83° W 20:11:44 13° S
Cosmos 1624 Rocket 4.0 20:06:55 10° NNW 20:12:09 73° ENE 20:16:05 18° SSE
Cosmos 2082 Rocket 4.2 20:09:00 10° WSW 20:14:02 32° NW 20:19:07 10° NNE
Cosmos 220 Rocket 4.0 20:10:58 10° NNW 20:15:21 82° WSW 20:18:36 18° SSE
ATLAS 3B R/B 4.3 20:13:42 10° WNW 20:19:33 28° WSW 20:25:35 10° SSW
Cosmos 2360 Rocket 2.2 20:14:11 10° NNW 20:19:51 78° ENE 20:23:55 19° SE
Cosmos 1420 Rocket 4.3 20:15:19 10° NNW 20:20:36 60° ENE 20:24:12 20° SE
ATLAS 2AS CENTAUR R/B 4.5 20:16:09 10° W 20:23:28 40° NNW 20:30:31 10° NE
Cosmos 1174 3.4 20:22:13 10° NNW 20:25:11 56° NE 20:26:29 29° ESE
COSMOS 2487 4.4 20:26:57 14° E 20:26:57 14° E 20:28:22 10° ENE
USA 267 4.5 20:23:14 10° E 20:27:25 18° ESE 20:27:32 18° ESE
NOSS 3-1 (A) 4.5 20:23:30 10° NW 20:30:33 56° NE 20:37:35 15° ESE
NOSS 2-1 (C) 2.7 20:29:11 10° SSW 20:32:27 69° SE 20:35:49 10° NE
Cosmos 2026 Rocket 4.4 20:29:52 10° SSW 20:36:09 66° WNW 20:42:24 10° N
Cosmos 1500 Rocket 4.4 20:34:48 25° SE 20:36:27 33° E 20:40:26 10° NNE
Cosmos 2084 3.3 20:34:01 10° SW 20:38:05 87° NW 20:42:18 10° NE
Cosmos 1812 2.8 20:34:22 10° NNW 20:38:14 75° W 20:40:30 23° S
COSMOS 2455 3.4 20:34:51 19° SSE 20:38:25 35° ESE 20:43:49 10° NE
Cosmos 1833 4.3 20:33:38 10° S 20:39:16 57° ESE 20:44:56 10° NE
GP-B 3.8 20:35:21 10° N 20:39:42 54° W 20:44:01 10° SSW
Meteor 1-27 Rocket 4.2 20:34:37 10° N 20:40:06 49° ENE 20:43:22 24° SE
NOSS 2-1 (D) 2.7 20:36:55 10° SW 20:40:12 83° SE 20:43:36 10° NE
Cosmos 2333 Rocket 2.4 20:35:22 10° NNW 20:40:59 60° ENE 20:44:24 24° SE
Cosmos 1452 Rocket 4.0 20:37:56 10° NNW 20:43:03 49° ENE 20:45:57 24° SE
ERS-1 Rocket 3.0 20:40:25 21° S 20:43:49 82° WSW 20:48:52 10° NNW
SL-27 R/B 2.4 20:44:41 18° SSW 20:47:18 89° E 20:50:56 10° NNE
Cosmos 2322 3.9 20:42:29 10° NNW 20:48:12 64° ENE 20:51:30 26° SE
H-2A R/B 4.2 20:45:40 10° NNE 20:49:34 36° E 20:50:39 30° SE
Okean 3 Rocket 4.3 20:48:23 10° SSW 20:52:47 55° WNW 20:57:16 10° N
Cosmos 2056 Rocket 4.0 20:47:43 10° NNW 20:52:56 55° WSW 20:56:16 21° S
Cosmos 2237 Rocket 3.8 20:48:50 10° NNW 20:53:31 25° NE 20:57:41 12° E
Cosmos 1408 Rocket 3.4 20:50:55 23° S 20:53:36 85° E 20:57:57 10° N
Cosmos 2322 Rocket 3.2 20:48:48 10° NW 20:53:56 38° WSW 20:57:55 16° SSW
Cosmos 1743 Rocket 3.8 20:55:45 32° SSE 20:57:26 51° E 21:01:45 10° NNE
Sich 1 4.3 20:57:14 23° ESE 20:57:54 24° E 21:01:25 10° NE
CZ-4B DEB 4.1 21:00:12 54° SSE 21:00:49 79° ENE 21:03:59 10° N
USA 234 4.0 20:57:13 10° E 21:03:32 52° NNE 21:09:51 10° WNW
Meteor 1-10 Rocket 4.3 20:58:25 10° NNW 21:03:58 74° W 21:07:16 25° S
Gblst 52 Del rocket 4.4 21:00:52 10° WNW 21:06:55 88° SSW 21:11:50 20° ESE
Cosmos 2219 Rocket 2.1 21:06:11 10° NNW 21:11:49 81° ENE 21:14:26 33° SE
Resurs 01 Rocket 4.4 21:13:06 10° WSW 21:14:18 11° W 21:15:31 10° WNW
BREEZE M DEB (TANK) 4.5 21:12:09 10° WSW 21:16:50 62° SSE 21:51:22 10° E
Cosmos 1515 Rocket 4.3 21:14:12 10° NNW 21:18:29 48° W 21:20:36 26° SSW
IRIDIUM 114 4.3 21:13:52 10° N 21:19:06 68° E 21:21:10 36° SSE
Terra 2.4 21:19:00 27° SSW 21:21:22 51° W 21:26:02 10° NNW
SL-16 R/B 4.3 21:18:43 10° N 21:22:38 19° NE 21:26:32 10° E
Cosmos 2285 Rocket 3.9 21:16:55 10° NNW 21:23:16 85° ENE 21:26:17 33° SSE
Cosmos 2266 Rocket 4.0 21:19:57 23° S 21:23:57 86° W 21:30:16 10° N
SL-16 R/B 4.3 21:20:30 10° WNW 21:24:07 18° W 21:27:46 10° SW
Cosmos 2315 Rocket 4.0 21:21:27 10° N 21:27:49 86° E 21:30:56 33° SSE
IRIDIUM 103 4.3 21:23:00 10° N 21:28:16 80° E 21:30:18 38° SSE
Cosmos 1515 4.1 21:26:01 10° N 21:29:41 46° ENE 21:30:04 44° E
ATLAS 5 CENTAUR R/B 2.3 21:24:35 10° NW 21:30:02 79° NE 21:33:05 32° SE
Cosmos 494 Rocket 4.2 21:32:48 41° SSE 21:33:59 50° ESE 21:38:56 10° NNE
Cosmos 2228 Rocket 3.0 21:29:34 10° NNW 21:34:00 80° W 21:35:17 46° S
Okean 1 3.8 21:35:07 10° N 21:38:59 44° ENE 21:39:27 42° E
SPOT 5 4.4 21:36:47 16° SW 21:39:05 24° W 21:42:41 10° NW
Cosmos 1602 4.1 21:39:19 47° E 21:39:20 47° E 21:43:03 10° NNE
COSMOS 2428 2.7 21:33:39 10° NNW 21:39:23 79° WSW 21:41:31 40° SSE
Meteor 1-19 Rocket 4.4 21:38:50 10° N 21:44:24 61° ENE 21:46:15 40° SE
Cosmos 1707 Rocket 3.7 21:40:49 10° N 21:45:10 62° ENE 21:45:57 52° SE
NOSS 3-1 (C) 4.4 21:37:58 10° NW 21:45:15 54° WSW 21:49:24 30° S
IRIDIUM 106 4.4 21:41:16 10° N 21:46:30 73° W 21:48:29 38° SSW
Cosmos 1048 Rocket 3.8 21:48:39 39° SSW 21:50:38 86° ESE 21:55:47 10° NNE
ALOS 2 3.0 21:59:23 43° ESE 22:00:11 49° ENE 22:04:26 10° N
Cosmos 2219 4.3 22:00:29 27° ESE 22:00:50 27° ESE 22:05:36 10° NE
COSMOS 2487 3.5 22:00:10 35° W 22:00:51 40° WNW 22:04:06 10° N
USA 229 DEB 4.0 21:54:02 10° NW 22:01:15 63° SW 22:04:27 36° S
USA 229 4.0 21:54:07 10° NW 22:01:21 64° SW 22:04:33 36° S
Cosmos 972 Rocket 4.4 21:59:17 25° SW 22:02:15 60° WNW 22:07:10 10° NNE
Cosmos 2360 Rocket 4.1 21:59:22 10° WNW 22:03:10 19° W 22:05:41 14° SW
Cosmos 1805 Rocket 3.9 22:02:11 41° SW 22:03:30 59° WNW 22:07:53 10° N
Cosmos 1302 Rocket 4.3 21:58:35 10° NNW 22:03:45 57° ENE 22:05:22 40° ESE
Cosmos 2084 Rocket 3.3 22:04:38 10° NW 22:08:51 90° ESE 22:09:18 72° SE
Nadezhda 1 Rocket 4.4 22:04:34 10° N 22:10:54 56° ENE 22:13:14 37° SE
CZ-4C R/B 4.0 22:04:39 10° NW 22:10:55 39° NNE 22:18:18 10° E
USA 267 3.2 22:04:53 10° ENE 22:11:22 60° SE 22:14:48 29° SSW
Cosmos 1980 3.6 22:10:06 10° NNW 22:15:48 83° ENE 22:17:31 47° SE
NOSS 0 Rocket 3.9 22:10:43 10° NNW 22:16:56 72° WSW 22:18:54 45° S
Okean 1-7 4.3 22:15:10 10° N 22:18:52 28° ENE 22:19:30 27° E
NOSS 3-1 (A) 4.4 22:14:26 10° NW 22:21:43 52° WSW 22:25:00 35° S
COSMOS 2455 3.5 22:18:19 10° SW 22:24:10 53° NW 22:30:05 10° NNE
Cosmos 2333 Rocket 3.6 22:20:17 10° NW 22:24:51 26° WSW 22:26:23 23° SW
Lacrosse 5 2.1 22:25:49 50° ESE 22:25:49 50° ESE 22:30:26 10° ENE
COBE Rocket 4.4 22:26:51 39° SW 22:27:43 44° W 22:32:14 10° NNW
NOSS 2-2 (D) 4.3 22:25:32 10° NW 22:30:43 87° NE 22:33:24 39° SE
BREEZE-M R/B 2.4 22:31:56 75° SSE 22:31:56 75° SSE 22:37:01 10° E
Cosmos 2297 Rocket 2.3 22:32:07 50° SSE 22:33:02 56° ESE 22:38:35 10° NE
Cosmos 1500 3.3 22:34:31 72° WNW 22:34:31 72° WNW 22:38:18 10° N
Sich 1 4.2 22:34:10 30° WSW 22:35:24 36° WNW 22:39:26 10° N
Cosmos 2237 Rocket 2.2 22:32:29 10° NNW 22:38:10 74° WSW 22:39:29 53° S
Thor Agena Rocket 4.3 22:33:58 10° NNE 22:38:33 34° E 22:39:01 33° ESE
Cosmos 1470 Rocket 3.3 22:43:08 79° SE 22:43:17 80° E 22:47:37 10° NNE
Cosmos 1633 Rocket 3.3 22:44:04 54° WSW 22:44:37 59° WNW 22:48:55 10° N
Cosmos 2227 Rocket 2.4 22:44:30 49° SE 22:45:18 53° ESE 22:50:48 10° NE
USA 234 3.1 22:42:59 32° SE 22:46:20 82° SW 22:52:57 10° WNW
Cosmos 1933 Rocket 3.7 22:49:28 61° ESE 22:49:38 62° E 22:54:03 10° NNE
Cosmos 1666 Rocket 4.4 22:50:45 37° WSW 22:51:39 42° WNW 22:55:55 10° N
Cosmos 2242 Rocket 3.7 22:49:00 10° N 22:53:23 62° ENE 22:53:45 60° ESE
Cosmos 1340 Rocket 3.0 22:54:24 60° ENE 22:54:24 60° ENE 22:57:57 10° NNE
Cosmos 2219 Rocket 3.9 22:51:25 10° WNW 22:55:04 18° W 22:56:08 17° WSW
Cosmos 1378 3.5 22:52:32 10° N 22:55:52 58° NE 22:55:52 58° NE
Cosmos 2263 Rocket 4.2 22:57:34 13° ESE 22:58:23 14° E 23:01:08 10° ENE
Cosmos 2181 Rocket 4.4 22:59:28 10° N 23:05:41 54° ENE 23:08:02 36° SE
SL-16 R/B 2.3 23:02:06 10° NNW 23:07:47 73° ENE 23:09:38 44° SE
Cosmos 2251 Rocket 4.3 23:08:14 34° ESE 23:08:46 35° ESE 23:13:35 10° NE
ATLAS 5 CENTAUR R/B 3.6 23:09:47 10° WNW 23:14:26 25° WSW 23:14:35 25° WSW
Okean 3 3.6 23:11:31 10° N 23:15:46 61° ENE 23:16:01 60° E
Meteor 2-4 Rocket 4.5 23:18:04 10° NNW 23:23:35 41° W 23:25:00 36° SW
Intercosmos 25 Rocket 3.6 23:24:02 68° SE 23:24:28 76° E 23:30:25 10° NNE
Cosmos 1743 3.6 23:25:44 40° E 23:25:44 40° E 23:29:03 10° NNE
Cosmos 1666 3.8 23:26:25 35° WNW 23:26:28 35° WNW 23:30:03 10° N
Meteor 1-11 Rocket 3.6 23:25:58 56° S 23:27:11 80° E 23:32:44 10° NNE
Cosmos 1703 Rocket 3.7 23:25:17 10° NNW 23:29:34 56° W 23:29:38 56° W
Cosmos 1709 Rocket 4.0 23:30:39 46° SSW 23:32:41 80° W 23:39:07 10° N
PSLV R/B 3.6 23:28:41 10° NNE 23:33:29 90° NNW 23:34:07 68° SSW
Cosmos 1992 Rocket 4.0 23:30:55 10° NNW 23:36:04 60° WSW 23:36:41 55° SW
ASTEX 1 3.9 23:35:16 40° ESE 23:36:33 50° ENE 23:41:20 10° N
ALOS 2 4.4 23:36:46 20° W 23:36:47 20° W 23:40:02 10° NW
Cosmos 909 Rocket 4.3 23:36:15 39° SW 23:39:06 88° WNW 23:47:08 10° NE
Cosmos 1943 4.4 23:34:25 10° NNW 23:39:47 39° NE 23:44:45 12° ESE
SL-8 R/B 4.2 23:43:02 43° ESE 23:43:02 43° ESE 23:46:44 10° E
Cosmos 1733 Rocket 4.1 23:41:40 32° ESE 23:42:20 34° E 23:46:21 10° NNE
CZ-2D R/B 3.8 23:39:14 10° NE 23:43:33 24° E 23:45:32 19° ESE
Cosmos 2219 3.6 23:42:22 35° WSW 23:44:38 58° WNW 23:50:20 10° NNE
Cosmos 1066 Rocket 4.4 23:41:30 10° NNW 23:47:19 62° W 23:48:43 48° SSW
Timation 1 Rocket 4.5 23:51:20 39° SW 23:53:36 68° WNW 23:59:37 10° NNE
Meteor 1-23 Rocket 4.2 23:48:22 10° NNW 23:54:07 79° W 23:55:43 49° S
YAOGAN 11 4.4 23:53:52 48° SE 23:54:56 64° ENE 23:59:24 10° N
